Regional Weather Roundup
Issued by NWS

Home | Current Version | Previous Version | Text Only | Print | Product List | Glossary Off
Versions: 1 2 3 4 5 6 7 8 9 10 11 12 13 14 15 16 17 18 19 20 21 22 23 24 25 26 27 28 29 30 31 32 33 34 35 36 37 38 39 40 41 42 43 44 45 46 47 48 49 50

000
ASUS45 KBOI 010810
RWRID

IDAHO REGIONAL WEATHER ROUNDUP
NATIONAL WEATHER SERVICE BOISE ID
200 AM MDT TUE SEP 01 2015

NOTE: "FAIR" INDICATES FEW OR NO CLOUDS BELOW 12000 FEET
WITH NO SIGNIFICANT WEATHER AND/OR OBSTRUCTIONS TO VISIBILITY

IDZ012-014-010900-
SOUTHWEST IDAHO


CITY           SKY/WX    TMP DP  RH WIND       PRES   REMARKS
BOISE          CLEAR     64  37  36 SE6       29.90S
CALDWELL       CLEAR     55  39  54 NE3       29.90S
MOUNTAIN HOME  CLEAR     60  41  49 W7        29.91S
$$

IDZ016-017-010900-
SOUTHCENTRAL IDAHO


CITY           SKY/WX    TMP DP  RH WIND       PRES   REMARKS
JEROME         CLEAR     59  35  40 E3        29.97S
TWIN FALLS     CLEAR     62  30  29 S12       29.97S
$$

IDZ019>023-010900-
SOUTHEAST IDAHO


CITY           SKY/WX    TMP DP  RH WIND       PRES   REMARKS
IDAHO FALLS    CLEAR     54  36  50 S7        30.01S
POCATELLO      CLEAR     53  33  46 E6        30.00F
REXBURG        CLEAR     49  35  58 N3        30.02R
$$

IDZ006-010-011-018-031-032-010900-
CENTRAL IDAHO MOUNTAINS


CITY           SKY/WX    TMP DP  RH WIND       PRES   REMARKS
MCCALL         CLEAR     45  36  70 CALM      30.01S
HAILEY         CLEAR     52  36  54 NW12      30.08R
STANLEY          N/A     43  29  57 S5        30.13S
SALMON         CLEAR     50  37  62 CALM      29.94S
CHALLIS        CLEAR     52  34  50 CALM      30.02S
$$

IDZ002-004-006-007-026-010900-
NORTHERN IDAHO


CITY           SKY/WX    TMP DP  RH WIND       PRES   REMARKS
LEWISTON       MOCLDY    62  44  51 W3        29.88S
LOWELL           N/A     54  51  90 NW3       29.95R
COEUR D`ALENE  MOCLDY    61  46  59 S9        29.87S
MULLAN PASS    PTCLDY    47  38  71 VRB7      30.00S
$$



USA.gov is the U.S. government's official web portal to all federal, state and local government web resources and services.